sat.trackr.live / text

‹ back to catalog

STARLINK-36572

NORAD 67536 · 2026-014E

PAYLOAD ACTIVE UNKNOWN

§ Identity

Operator
Country
US
Launch date
2026-01-22
Launch site
AFWTR
Launch vehicle
Mass (kg)
RCS (m²)

Purposes: comms

External: N2YO · Heavens-Above · Gunter

§ Orbital elements

Epoch: 2026-09-19T23:05:56.971680Z

Period
93.91 min
Inclination
97.2858°
Eccentricity
0.0002159
Mean motion
15.33462394 rev/d
Perigee alt
464.0 km
Apogee alt
467.0 km
Semi-major
6,843.6 km
B*
4.0583e-4
RAAN
148.3000°
Arg perigee
92.0398°
Mean anomaly
268.1092°
Rev number
3,855

§ Raw data

STARLINK-365721 67536U 26014E   26262.96246495  .00013057  00000+0  40583-3 0  99912 67536  97.2858 148.3000 0002159  92.0398 268.1092 15.33462394 38551

JSON: /api/v1/satellites/67536 · /tle

For live sub-satellite position, see the globe view (requires WebGL).

§ Visibility from observer

Set your observer location to see the next 7 days of passes ≥ 10°. The values pass through the URL so the page stays shareable.

No JS? Fill the form by hand. The geolocation button needs JavaScript.